AirNav   Everest Fuels
 
 1009 users online  

89TE Plaza Medical Center Heliport
Fort Worth, Texas, USA


FAA INFORMATION EFFECTIVE 09 SEPTEMBER 2021

Location

FAA Identifier: 89TE
Lat/Long: 32-44-09.3100N 097-20-46.4000W
32-44.155167N 097-20.773333W
32.7359194,-97.3462222
(estimated)
Elevation: 667 ft. / 203 m (estimated)
From city: 1 mile SW of FORT WORTH, TX
Time zone: UTC -5 (UTC -6 during Standard Time)
Zip code: 76104

Heliport Operations

Heliport use: Private use. Permission required prior to landing
Activation date: 10/2020
Control tower: no
ARTCC: FORT WORTH CENTER
FSS: FORT WORTH FLIGHT SERVICE STATION
Attendance: UNATNDD
Wind indicator: yes
Segmented circle: no

Heliport Communications

WX ASOS at FTW (5 nm N): PHONE 817-740-3346
WX AWOS-3 at FWS (10 nm S): 120.025 (817-426-4172)
WX ASOS at GKY (13 nm E): 127.375 (817-557-0251)
WX AWOS-3P at GPM (15 nm E): 118.475 (972-606-1433)
WX ASOS at AFW (15 nm N): PHONE 817-491-6188
WX ASOS at DFW (18 nm NE): PHONE 972-615-2608

Nearby radio navigation aids

VOR radial/distance  VOR name  Freq  Var
FUZr216/12.5RANGER VORTAC115.7006E
TTTr237/17.4MAVERICK VOR/DME113.1006E
CVEr241/24.1COWBOY VOR/DME116.2006E
MQPr080/32.9MILLSAP VORTAC117.7009E

 
NDB name  Hdg/Dist  Freq  Var  ID
MUFIN164/9.536508EFT ..-. -

Heliport Services

Runway Information

Helipad H1

Dimensions: 53 x 53 ft. / 16 x 16 m
Surface: mats, in good condition
Latitude: 32-44.155167N
Longitude: 097-20.773333W
Elevation: 667.0 ft.
Traffic pattern: leftleft

Heliport Ownership and Management from official FAA records

Ownership: Privately-owned
Owner: MEDICAL CITY FORT WORTH
900 EIGHTH AVENUE
FORT WORTH, TX 76104
Phone 817-347-4571
Manager: JAY GRUBBS
900 EIGHTH AVENUE
FORT WORTH, TX 76104
Phone 817-347-4571

Instrument Procedures

There are no published instrument procedures at 89TE.

Some nearby airports with instrument procedures:

KFTW - Fort Worth Meacham International Airport (5 nm N)
KNFW - Fort Worth Naval Air Station JRB (Carswell Field) Airport (5 nm NW)
KFWS - Fort Worth Spinks Airport (10 nm S)
KGKY - Arlington Municipal Airport (13 nm E)
KGPM - Grand Prairie Municipal Airport (15 nm E)
KAFW - Fort Worth Alliance Airport (15 nm N)
50F - Bourland Field Airport (15 nm SW)
4T2 - Kenneth Copeland Airport (16 nm NW)
KWEA - Parker County Airport (17 nm W)
KDFW - Dallas-Fort Worth International Airport (18 nm NE)
 
Loc | Ops | Rwys | IFR | FBO | Links
Com | Nav | Svcs | Stats | Notes
Aerial photo
No photo
 
Airport distance calculator
Flying to Plaza Medical Center Heliport? Find the distance to fly.

From to 89TE

Sunrise and sunset
Times for 25-Sep-2021
 Local
(UTC-5)
 Zulu
(UTC)
Morning civil twilight06:5611:56
Sunrise07:2012:20
Sunset19:2200:22
Evening civil twilight19:4600:46

Current date and time
Zulu (UTC)  25-Sep-2021 15:09:26
Local (UTC-5)  25-Sep-2021 10:09:26
 
METAR
KNFW 
6nm W 
251452Z 00000KT 10SM CLR 23/12 A3015 RMK AO2 SLP193 T02330122 51015 $
KFTW 
6nm N 
251353Z AUTO 17003KT 10SM CLR 18/12 A3014 RMK AO2 SLP199 T01830117
KFWS 
10nm S 
251448Z 00000KT 10SM CLR 23/13 A3017
KGKY 
13nm E 
251453Z VRB03KT 10SM CLR 24/13 A3015 RMK AO2 SLP203 T02390128 53016
KAFW 
14nm N 
251453Z 20004KT 10SM CLR 23/12 A3014 RMK AO2 SLP196 T02280117 51015
KGPM 
15nm E 
251450Z 19005KT 10SM SKC 22/12 A3016
KDFW 
19nm NE 
251453Z VRB03KT 10SM FEW300 23/12 A3014 RMK AO2 SLP197 T02280122 52015
TAF
KNFW 
6nm W 
2507/2607 16006KT 9999 FEW040 BKN220 QNH2997INS BECMG 2512/2514 VRB05KT 9999 SKC QNH3002INS BECMG 2600/2602 17006KT 9999 FEW140 QNH3004INS AUTOMATED SENSOR METWATCH 2507 TIL 2511 T17/2512Z T32/2521Z FN00243
KFTW 
6nm N 
251135Z 2512/2612 17005KT P6SM SCT250
KGKY 
13nm E 
251135Z 2512/2612 17005KT P6SM SCT250
KAFW 
14nm N 
251135Z 2512/2612 17006KT P6SM SCT250
KDFW 
19nm NE 
251135Z 2512/2618 17005KT P6SM SCT250
NOTAMs
Click for the latest NOTAMs
NOTAMs are issued by the DoD/FAA and will open in a separate window not controlled by AirNav.

 

 
 

Would you like to see your business listed on this page?

 If your business provides an interesting product or service to pilots, flight crews, aircraft, or users of the Plaza Medical Center Heliport, you should consider listing it here.  To start the listing process, click on the button below
 
Add a business
 

Other Pages about Plaza Medical Center Heliport

Update a link
 
Copyright © AirNav, LLC. All rights reserved. Privacy Policy  Contact